Tiempo atmosférico en la estación meteorológica de La Pobla de Benifassà-Fredes, Castelló/Castellón (1174 m.)



Fecha
DESCASC
Temp. máxima en grados centígrados (hora)
DESCASC
Temp. mínima en grados centígrados (hora)
DESCASC
Temp. media en grados centígrados
DESCASC
Racha de viento máxima en m/sg (hora)
DESCASC
Velocidad máxima media en intervalos de 10 minutos(hora)
DESCASC
Precipitaciones diarias en mm
DESCASC
Precipitaciones de 00:00 a 06:00 en mm
DESCASC
Precipitaciones de 06:00 a 12:00 en mm
DESCASC
Precipitaciones de 12:00 a 18:00 en mm
DESCASC
Precipitaciones de 18:00 a 24:00 en mm
DESCASC
15-08-2019 24.6 (13:30) 15.6 (07:20) 20.1 8.33 (23:30) 5.56 (23:30) 0 0 0 0 0
14-08-2019 26.1 (14:50) 13 (00:00) 19.6 10 (00:10) 5.28 (03:30) 0 0 0 0 0
13-08-2019 20.3 (13:40) 10.1 (00:00) 15.2 13.33 (00:10) 8.33 (00:30) 0 0 0 0 0
12-08-2019 22.5 (17:30) 12 (00:00) 17.3 14.44 (23:20) 8.89 (23:50) 0.2 0 0.2 0 0
11-08-2019 24 (13:00) 15.6 (00:00) 19.8 8.89 (14:00) 5.28 (23:59) 25 0 0 24.6 0.4
10-08-2019 27 (14:40) 16.8 (00:00) 21.9 13.89 (01:10) 8.06 (01:10) 0 0 0 0 0
09-08-2019 31 (12:00) 19.6 (00:00) 25.3 8.89 (23:59) 5.28 (23:59) 0 0 0 0 0
08-08-2019 28.5 (16:10) 18.3 (00:00) 23.4 10.83 (17:10) 6.11 (09:00) 0 0 0 0 0
07-08-2019 29.8 (14:30) 19.1 (00:00) 24.4 7.5 (13:40) 3.89 (12:10) 0 0 0 0 0
06-08-2019 27.4 (14:10) 18.1 (00:00) 22.8 7.78 (15:20) 3.89 (13:50) 0.2 0 0 0.2 0
05-08-2019 26.6 (15:00) 17.1 (00:00) 21.9 8.61 (15:20) 4.44 (16:50) 0 0 0 0 0
04-08-2019 27.3 (13:00) 17.1 (00:00) 22.2 8.33 (14:30) 4.72 (15:10) 0 0 0 0 0
03-08-2019 26.6 (15:10) 16.9 (00:00) 21.8 9.72 (13:50) 4.72 (17:00) 0 0 0 0 0
02-08-2019 26.4 (14:10) 14.8 (00:00) 20.6 9.17 (17:10) 5.28 (03:10) 0 0 0 0 0
01-08-2019 24.5 (15:20) 14.1 (00:00) 19.3 9.17 (15:40) 4.72 (15:40) 0 0 0 0 0
31-07-2019 20.3 (11:40) 11.3 (00:00) 15.8 10.28 (13:30) 5 (00:10) 0 0 0 0 0
30-07-2019 24.8 (15:50) 12.6 (00:00) 18.7 13.06 (06:30) 8.33 (06:30) 0 0 0 0 0
29-07-2019 25.9 (13:50) 14.5 (00:00) 20.2 8.33 (17:00) 4.44 (17:00) 0 0 0 0 0
28-07-2019 24.4 (17:00) 9.7 (00:00) 17 23.89 (07:10) 15.56 (06:40) 0 0 0 0 0
27-07-2019 24 (15:50) 11.9 (00:00) 17.9 20.83 (23:40) 11.67 (23:40) 0.2 0.2 0 0 0
26-07-2019 24.5 (14:20) 15.3 (00:00) 19.9 8.89 (17:30) 5.56 (20:10) 13.8 0 0 12.6 1.2
25-07-2019 -- (--) -- (--) -- -- (--) -- (--) -- -- -- -- 0
24-07-2019 -- (--) -- (--) -- -- (--) -- (--) -- -- -- -- --
23-07-2019 -- (--) -- (--) -- -- (--) -- (--) -- -- -- -- --
22-07-2019 -- (--) -- (--) -- -- (--) -- (--) -- -- -- -- --
21-07-2019 -- (--) -- (--) -- -- (--) -- (--) -- -- -- -- --
20-07-2019 -- (--) -- (--) -- -- (--) -- (--) -- -- -- -- --
19-07-2019 -- (--) -- (--) -- -- (--) -- (--) -- -- -- -- --
18-07-2019 -- (--) -- (--) -- -- (--) -- (--) -- -- -- -- --

Gráficas

Temp. máximas Temp. mínimas Temp. medias Precipitaciones Rachas de viento máximas Velocidades máximas media en intervalos de 10 minutos

Datos horarios

Fecha y hora oficial Temperatura (ºC) Velocidad del viento (km/h) Dirección del viento Racha (km/h) Dirección de racha Precipitación (mm) Presión (hPa) Tendencia (hPa) Humedad (%)
2019-08-16 23:00:00 18.9 4 Sudeste 14 Sudeste 0 -- -- 83
2019-08-16 22:00:00 17.9 0 Calma 4 Sudeste -- -- -- 84
2019-08-16 21:00:00 19.2 0 Calma 7 Este 0 -- -- 78
2019-08-16 20:00:00 19.9 4 Este 19 Este 0 -- -- 77
2019-08-16 19:00:00 21.1 9 Este 21 Este 0 -- -- 73
2019-08-16 18:00:00 22.4 11 Este 22 Sudeste -- -- -- 71
2019-08-16 17:00:00 22.6 13 Este 26 Este 0 -- -- 71
2019-08-16 16:00:00 23.2 14 Este 24 Este 0 -- -- 67
2019-08-16 15:00:00 22.7 12 Este 27 Este 0 -- -- 68
2019-08-16 14:00:00 22.6 14 Este 25 Este 0 -- -- 68
2019-08-16 13:00:00 22.9 8 Sudeste 28 Este 0 -- -- 60
2019-08-16 12:00:00 22.3 12 Este 27 Este 0 -- -- 62
2019-08-16 11:00:00 21.5 11 Este 23 Este 0 -- -- 67
2019-08-16 10:00:00 19.4 9 Este 15 Este 0 -- -- 69
2019-08-16 09:00:00 19.2 7 Este 13 Este 0 -- -- 74
2019-08-16 08:00:00 16.1 0 Calma 8 Sudeste 0 -- -- 57
2019-08-16 07:00:00 15.6 2 Sudeste 6 Sur 0 -- -- 56
2019-08-16 06:00:00 14.7 4 Oeste 5 Oeste 0 -- -- 53
2019-08-16 05:00:00 15.6 3 Sudeste 5 Sudeste 0 -- -- 48
2019-08-16 04:00:00 15.8 4 Sudoeste 14 Oeste 0 -- -- 46
2019-08-16 03:00:00 16.1 10 Oeste 20 Oeste 0 -- -- 50
2019-08-16 02:00:00 16.5 13 Oeste 21 Oeste 0 -- -- 53
2019-08-16 01:00:00 16.7 15 Oeste 23 Oeste 0 -- -- 54
2019-08-16 00:00:00 17.3 15 Oeste 30 Noroeste 0 -- -- 54
2019-08-15 23:00:00 18.4 18 Oeste 28 Oeste 0 -- -- 54
2019-08-15 22:00:00 18.7 12 Noroeste 19 Noroeste 0 -- -- 63
2019-08-15 21:00:00 20 6 Oeste 10 Oeste 0 -- -- 84
2019-08-15 20:00:00 21.1 4 Sudeste 16 Este 0 -- -- 81
2019-08-15 19:00:00 22.2 8 Este 17 Este 0 -- -- 76
2019-08-15 18:00:00 23 9 Este 19 Este 0 -- -- 74
2019-08-15 17:00:00 23.5 6 Este 21 Sudeste 0 -- -- 73
2019-08-15 16:00:00 24.1 9 Sudeste 22 Este 0 -- -- 69
2019-08-15 15:00:00 23.8 12 Este 22 Este 0 -- -- 68
2019-08-15 14:00:00 23.2 12 Este 26 Este 0 -- -- 66
2019-08-15 13:00:00 24.3 12 Este 23 Nordeste 0 -- -- 56
2019-08-15 12:00:00 23 5 Noroeste 18 Oeste 0 -- -- 54
2019-08-15 11:00:00 21.7 11 Oeste 25 Noroeste 0 -- -- 58
2019-08-15 10:00:00 20.2 14 Oeste 24 Oeste 0 -- -- 65
2019-08-15 09:00:00 18.3 15 Oeste 23 Oeste 0 -- -- 68
2019-08-15 08:00:00 16.2 12 Oeste 26 Oeste 0 -- -- 72
2019-08-15 07:00:00 15.7 17 Oeste 26 Oeste 0 -- -- 73
2019-08-15 06:00:00 16 17 Oeste 24 Noroeste 0 -- -- 69
2019-08-15 05:00:00 16.2 14 Oeste 21 Oeste 0 -- -- 64
2019-08-15 04:00:00 16.7 14 Oeste 20 Oeste 0 -- -- 62
2019-08-15 03:00:00 17.2 14 Oeste 21 Oeste 0 -- -- 57
2019-08-15 02:00:00 18.2 13 Oeste 22 Noroeste 0 -- -- 49
2019-08-15 01:00:00 17.7 12 Oeste 15 Oeste 0 -- -- 51
2019-08-15 00:00:00 17.6 12 Oeste 15 Oeste 0 -- -- 55
2019-08-14 23:00:00 17.2 11 Oeste 14 Oeste 0 -- -- 76
2019-08-14 22:00:00 17.5 5 Sudoeste 8 Sudoeste 0 -- -- 77
2019-08-14 21:00:00 19.5 0 Calma 10 Sudeste 0 -- -- 77
2019-08-14 20:00:00 21.2 5 Sudeste 13 Sudeste 0 -- -- 71
2019-08-14 19:00:00 22.4 4 Sudeste 21 Este 0 -- -- 66
2019-08-14 18:00:00 23.4 8 Este 17 Sudeste 0 -- -- 62
2019-08-14 17:00:00 24.3 8 Este 18 Este 0 -- -- 59
2019-08-14 16:00:00 24.4 7 Este 22 Nordeste 0 -- -- 57
2019-08-14 15:00:00 26 10 Noroeste 29 Norte 0 -- -- 25
2019-08-14 14:00:00 25.2 9 Sudoeste 26 Sudoeste 0 -- -- 31
2019-08-14 13:00:00 24 6 Sudoeste 23 Sudoeste 0 -- -- 34
2019-08-14 12:00:00 23.8 9 Oeste 22 Noroeste 0 -- -- 37
2019-08-14 11:00:00 21.9 6 Sudoeste 17 Sudoeste 0 -- -- 39
2019-08-14 10:00:00 20.7 10 Oeste 20 Oeste 0 -- -- 45
2019-08-14 09:00:00 17.7 10 Oeste 20 Oeste 0 -- -- 44
2019-08-14 08:00:00 13.8 15 Oeste 21 Oeste 0 -- -- 48
2019-08-14 07:00:00 13.1 15 Oeste 25 Oeste 0 -- -- 50
2019-08-14 06:00:00 13.2 16 Oeste 24 Oeste 0 -- -- 50
2019-08-14 05:00:00 13.1 15 Oeste 28 Oeste 0 -- -- 55
2019-08-14 04:00:00 13.4 15 Oeste 30 Oeste 0 -- -- 53
2019-08-14 03:00:00 14 18 Oeste 29 Oeste 0 -- -- 52
2019-08-14 02:00:00 13.8 16 Oeste 27 Oeste 0 -- -- 56
2019-08-14 01:00:00 13.9 11 Oeste 36 Oeste 0 -- -- 54
2019-08-14 00:00:00 14.6 21 Noroeste 45 Noroeste 0 -- -- 52
2019-08-13 23:00:00 14.4 22 Oeste 33 Noroeste 0 -- -- 51
2019-08-13 22:00:00 14.3 10 Oeste 15 Oeste 0 -- -- 55
2019-08-13 21:00:00 16.9 8 Noroeste 19 Noroeste 0 -- -- 51
2019-08-13 20:00:00 18.4 9 Noroeste 19 Noroeste 0 -- -- 47
2019-08-13 19:00:00 19 6 Sudeste 15 Este 0 -- -- 64
2019-08-13 18:00:00 19.3 8 Este 16 Este 0 -- -- 65
2019-08-13 17:00:00 19.4 3 Sur 17 Este 0 -- -- 56
2019-08-13 16:00:00 19 8 Este 22 Este 0 -- -- 60
2019-08-13 15:00:00 19.6 4 Nordeste 18 Sur 0 -- -- 57
2019-08-13 14:00:00 19.9 7 Este 23 Este 0 -- -- 54
2019-08-13 13:00:00 18.6 6 Este 17 Este 0 -- -- 55
2019-08-13 12:00:00 17.2 9 Oeste 26 Oeste 0 -- -- 54
2019-08-13 11:00:00 16.3 15 Oeste 27 Oeste 0 -- -- 55
2019-08-13 10:00:00 12.9 15 Oeste 27 Oeste 0 -- -- 63
2019-08-13 09:00:00 11 18 Oeste 32 Oeste 0 -- -- 69
2019-08-13 08:00:00 10.3 17 Oeste 33 Oeste 0 -- -- 74
2019-08-13 07:00:00 10.2 21 Oeste 34 Oeste 0 -- -- 73
2019-08-13 06:00:00 10.1 23 Oeste 33 Oeste 0 -- -- 72
2019-08-13 05:00:00 10.3 18 Oeste 31 Noroeste 0 -- -- 70
2019-08-13 04:00:00 10.5 20 Oeste 38 Oeste 0 -- -- 72
2019-08-13 03:00:00 10.9 20 Oeste 41 Oeste 0 -- -- 71
2019-08-13 02:00:00 11.4 23 Oeste 41 Oeste 0 -- -- 68
2019-08-13 01:00:00 12.3 27 Oeste 48 Oeste 0 -- -- 62
2019-08-13 00:00:00 12.3 31 Oeste 52 Oeste 0 -- -- 63
2019-08-12 23:00:00 13.1 30 Oeste 48 Noroeste 0 -- -- 61
2019-08-12 22:00:00 14.3 28 Oeste 48 Noroeste 0 -- -- 56
2019-08-12 21:00:00 15.8 26 Oeste 44 Noroeste 0 -- -- 49
2019-08-12 20:00:00 17.8 21 Noroeste 37 Noroeste 0 -- -- 45
2019-08-12 19:00:00 19.7 16 Noroeste 34 Oeste 0 -- -- 42
2019-08-12 18:00:00 21.4 17 Noroeste 36 Noroeste 0 -- -- 42
2019-08-12 17:00:00 21.8 18 Noroeste 37 Noroeste 0 -- -- 42
2019-08-12 16:00:00 21.9 17 Noroeste 35 Noroeste 0 -- -- 41
2019-08-12 15:00:00 21.6 14 Noroeste 36 Noroeste 0 -- -- 44
2019-08-12 14:00:00 20.3 21 Noroeste 38 Noroeste 0 -- -- 48
2019-08-12 13:00:00 19.1 23 Noroeste 42 Oeste 0 -- -- 54
2019-08-12 12:00:00 16.1 20 Oeste 43 Noroeste 0 -- -- 63
2019-08-12 11:00:00 15.2 23 Oeste 45 Noroeste 0 -- -- 67
2019-08-12 10:00:00 13.9 22 Oeste 42 Oeste 0 -- -- 75
2019-08-12 09:00:00 13.4 25 Oeste 44 Oeste 0 -- -- 75
2019-08-12 08:00:00 12.2 27 Oeste 44 Oeste 0 -- -- 78
2019-08-12 07:00:00 12.1 25 Oeste 40 Oeste 0.2 -- -- 78
2019-08-12 06:00:00 12.7 23 Oeste 45 Oeste 0 -- -- 77
2019-08-12 05:00:00 13.3 31 Oeste 44 Oeste 0 -- -- 75
2019-08-12 04:00:00 13.7 25 Oeste 39 Oeste 0 -- -- 73
2019-08-12 03:00:00 14.4 25 Oeste 39 Oeste 0 -- -- 71
2019-08-12 02:00:00 15 19 Oeste 35 Oeste 0 -- -- 74
2019-08-12 01:00:00 15.3 19 Oeste 34 Oeste 0 -- -- 74
2019-08-12 00:00:00 15.9 19 Oeste 28 Oeste 0 -- -- 72
2019-08-11 23:00:00 17.5 10 Oeste 18 Oeste 0 -- -- 89
2019-08-11 22:00:00 17.9 2 Este 4 Sur 0 -- -- 91
2019-08-11 21:00:00 18.5 2 Nordeste 6 Nordeste 0 -- -- 82
2019-08-11 20:00:00 19.4 4 Nordeste 10 Este 0 -- -- 83
2019-08-11 19:00:00 20.4 4 Sudeste 13 Nordeste 0.4 -- -- 88
2019-08-11 18:00:00 19.9 4 Norte 17 Noroeste 0.6 -- -- 82
2019-08-11 17:00:00 17.3 11 Noroeste 20 Noroeste 18.2 -- -- 93
2019-08-11 16:00:00 17.6 13 Oeste 21 Oeste 5.8 -- -- 90
2019-08-11 15:00:00 20.9 9 Nordeste 31 Este 0 -- -- 80
2019-08-11 14:00:00 23.4 15 Este 32 Este 0 -- -- 75
2019-08-11 13:00:00 24 10 Este 24 Este 0 -- -- 69
2019-08-11 12:00:00 22.5 10 Este 19 Este 0 -- -- 74
2019-08-11 11:00:00 20.7 4 Este 10 Sudeste 0 -- -- 83
2019-08-11 10:00:00 19 4 Este 18 Este 0 -- -- 93
2019-08-11 09:00:00 18.2 8 Este 24 Este 0 -- -- 96
2019-08-11 08:00:00 17.9 13 Este 24 Este 0 -- -- 95
2019-08-11 07:00:00 17.6 12 Este 23 Este 0 -- -- 95
2019-08-11 06:00:00 17.6 12 Este 23 Este 0 -- -- 95
2019-08-11 05:00:00 17.7 11 Este 29 Este 0 -- -- 94
2019-08-11 04:00:00 17.5 10 Este 22 Este 0 -- -- 94
2019-08-11 03:00:00 15.6 5 Sudeste 13 Este 0 -- -- 87
2019-08-11 02:00:00 16.2 5 Este 9 Sudeste 0 -- -- 85
2019-08-11 01:00:00 16.3 4 Este 11 Este 0 -- -- 85
2019-08-11 00:00:00 16.9 4 Sudeste 10 Este 0 -- -- 84
2019-08-10 23:00:00 18.3 5 Sudeste 17 Sudeste 0 -- -- 82
2019-08-10 22:00:00 19.2 8 Este 21 Este 0 -- -- 88
2019-08-10 21:00:00 20.1 11 Sudeste 20 Sudeste 0 -- -- 82
2019-08-10 20:00:00 21.1 9 Este 28 Este 0 -- -- 73
2019-08-10 19:00:00 22.6 13 Este 24 Este 0 -- -- 71
2019-08-10 18:00:00 23.3 13 Este 27 Este 0 -- -- 72
2019-08-10 17:00:00 23.7 11 Este 24 Este 0 -- -- 70
2019-08-10 16:00:00 23.5 12 Este 32 Este 0 -- -- 72
2019-08-10 15:00:00 26.4 13 Este 34 Este 0 -- -- 58
2019-08-10 14:00:00 26.7 14 Este 30 Este 0 -- -- 45
2019-08-10 13:00:00 26 13 Este 30 Este 0 -- -- 47
2019-08-10 12:00:00 25.6 14 Este 26 Este 0 -- -- 50
2019-08-10 11:00:00 24.9 7 Oeste 17 Noroeste 0 -- -- 51
2019-08-10 10:00:00 22.7 8 Oeste 26 Noroeste 0 -- -- 58
2019-08-10 09:00:00 19.7 16 Oeste 30 Oeste 0 -- -- 66
2019-08-10 08:00:00 17.6 20 Oeste 38 Oeste 0 -- -- 75
2019-08-10 07:00:00 17.1 23 Oeste 37 Oeste 0 -- -- 82
2019-08-10 06:00:00 18.1 24 Oeste 40 Oeste 0 -- -- 79
2019-08-10 05:00:00 18.3 22 Oeste 30 Oeste 0 -- -- 78
2019-08-10 04:00:00 18.6 19 Oeste 31 Noroeste 0 -- -- 79
2019-08-10 03:00:00 19.1 18 Oeste 40 Oeste 0 -- -- 77
2019-08-10 02:00:00 20.1 27 Oeste 50 Oeste 0 -- -- 73
2019-08-10 01:00:00 21.6 27 Oeste 49 Noroeste 0 -- -- 66
2019-08-10 00:00:00 24.8 19 Oeste 32 Oeste 0 -- -- 44
2019-08-09 23:00:00 24.4 12 Oeste 17 Oeste 0 -- -- 47
2019-08-09 22:00:00 24.9 9 Sudoeste 11 Sudoeste 0 -- -- 46
2019-08-09 21:00:00 25.5 3 Norte 9 Norte 0 -- -- 45
2019-08-09 20:00:00 26.5 6 Este 17 Este 0 -- -- 44
2019-08-09 19:00:00 27.8 12 Este 26 Este 0 -- -- 45
2019-08-09 18:00:00 29.1 12 Este 27 Este 0 -- -- 43
2019-08-09 17:00:00 30.3 12 Este 26 Este 0 -- -- 42
2019-08-09 16:00:00 30.5 12 Este 29 Este 0 -- -- 40
2019-08-09 15:00:00 30.3 15 Este 31 Este 0 -- -- 40
2019-08-09 14:00:00 30 12 Este 24 Este 0 -- -- 40
2019-08-09 13:00:00 30.7 12 Este 27 Este 0 -- -- 39
2019-08-09 12:00:00 31 15 Este 24 Este 0 -- -- 34
2019-08-09 11:00:00 30.5 7 Sur 22 Sur 0 -- -- 34
2019-08-09 10:00:00 29.1 8 Sudoeste 19 Sur 0 -- -- 30
2019-08-09 09:00:00 26.9 5 Sudoeste 11 Sur 0 -- -- 36
2019-08-09 08:00:00 23.7 6 Sudoeste 11 Oeste 0 -- -- 45
2019-08-09 07:00:00 20.8 8 Oeste 13 Noroeste 0 -- -- 49
2019-08-09 06:00:00 20.7 10 Oeste 15 Noroeste 0 -- -- 50
2019-08-09 05:00:00 21.2 7 Sudoeste 12 Sur 0 -- -- 49
2019-08-09 04:00:00 21.3 7 Sudoeste 11 Sudoeste 0 -- -- 49
2019-08-09 03:00:00 22.4 7 Sudoeste 12 Sur 0 -- -- 49
2019-08-09 02:00:00 21.3 4 Sudoeste 9 Oeste 0 -- -- 51
2019-08-09 01:00:00 20.9 8 Oeste 14 Oeste 0 -- -- 55
2019-08-09 00:00:00 19.6 5 Noroeste 10 Sur 0 -- -- 60
2019-08-08 23:00:00 20.5 3 Sur 17 Sudeste 0 -- -- 59
2019-08-08 22:00:00 19.9 0 Calma 12 Este 0 -- -- 63
2019-08-08 21:00:00 21.6 5 Sudeste 16 Este 0 -- -- 58
2019-08-08 20:00:00 23.1 8 Este 20 Este 0 -- -- 58
2019-08-08 19:00:00 24.8 10 Este 26 Este 0 -- -- 54
2019-08-08 18:00:00 26.5 9 Este 39 Este 0 -- -- 48
2019-08-08 17:00:00 27.6 12 Sudeste 31 Este 0 -- -- 48
2019-08-08 16:00:00 28.1 14 Este 28 Este 0 -- -- 50
2019-08-08 15:00:00 27.9 10 Este 35 Nordeste 0 -- -- 50
2019-08-08 14:00:00 28.3 13 Este 33 Este 0 -- -- 49
2019-08-08 13:00:00 27.5 6 Noroeste 21 Sudoeste 0 -- -- 45
2019-08-08 12:00:00 26.6 7 Oeste 22 Oeste 0 -- -- 39
2019-08-08 11:00:00 25.3 12 Oeste 29 Oeste 0 -- -- 43
2019-08-08 10:00:00 23.2 18 Oeste 33 Noroeste 0 -- -- 48
2019-08-08 09:00:00 20.9 22 Oeste 36 Oeste 0 -- -- 54
2019-08-08 08:00:00 19.5 19 Oeste 33 Oeste 0 -- -- 57
2019-08-08 07:00:00 18.3 18 Oeste 31 Oeste 0 -- -- 58
2019-08-08 06:00:00 18.7 15 Noroeste 26 Noroeste 0 -- -- 57
2019-08-08 05:00:00 18.7 14 Oeste 23 Oeste 0 -- -- 59
2019-08-08 04:00:00 18.5 13 Oeste 20 Oeste 0 -- -- 60
2019-08-08 03:00:00 19.3 6 Oeste 11 Oeste 0 -- -- 82
2019-08-08 02:00:00 20.7 5 Sur 10 Sur 0 -- -- 79
2019-08-08 01:00:00 21.1 2 Sudoeste 16 Sur 0 -- -- 77
2019-08-08 00:00:00 21.2 5 Sudeste 13 Sudeste 0 -- -- 62
2019-08-07 23:00:00 20.2 2 Sudoeste 10 Sudoeste 0 -- -- 62
2019-08-07 22:00:00 20.5 6 Sudoeste 16 Sur 0 -- -- 62
2019-08-07 21:00:00 22 5 Sur 9 Sudoeste 0 -- -- 79
2019-08-07 20:00:00 22.8 4 Este 10 Este 0 -- -- 78
2019-08-07 19:00:00 23 6 Sudeste 13 Este 0 -- -- 79
2019-08-07 18:00:00 23.3 4 Este 10 Este 0 -- -- 76
2019-08-07 17:00:00 23.6 6 Este 18 Este 0 -- -- 74
2019-08-07 16:00:00 24.3 9 Este 19 Este 0 -- -- 72
2019-08-07 15:00:00 26 10 Este 24 Noroeste 0 -- -- 63
2019-08-07 14:00:00 28.1 10 Oeste 27 Oeste 0 -- -- 35
2019-08-07 13:00:00 26.5 9 Oeste 25 Oeste 0 -- -- 38
2019-08-07 12:00:00 25.9 13 Oeste 22 Oeste 0 -- -- 38
2019-08-07 11:00:00 25.4 7 Oeste 17 Oeste 0 -- -- 44
2019-08-07 10:00:00 24 10 Oeste 19 Sudoeste 0 -- -- 52
2019-08-07 09:00:00 23.1 4 Sudoeste 9 Sudoeste 0 -- -- 34
2019-08-07 08:00:00 20.4 4 Oeste 10 Oeste 0 -- -- 39
2019-08-07 07:00:00 20.1 9 Oeste 17 Oeste 0 -- -- 44
2019-08-07 06:00:00 19.2 11 Oeste 21 Oeste 0 -- -- 53
2019-08-07 05:00:00 20.1 10 Oeste 14 Oeste 0 -- -- 50
2019-08-07 04:00:00 20.9 6 Sudoeste 13 Sudoeste 0 -- -- 46
2019-08-07 03:00:00 22.8 11 Sur 24 Sur 0 -- -- 41
2019-08-07 02:00:00 22.5 11 Sur 21 Sudoeste 0 -- -- 45
2019-08-07 01:00:00 21.1 3 Sudeste 14 Sur 0 -- -- 64
2019-08-07 00:00:00 19.8 4 Sur 10 Sudeste 0 -- -- 76
2019-08-06 23:00:00 19.7 4 Sudeste 13 Este 0 -- -- 72
2019-08-06 22:00:00 20.5 4 Sudeste 14 Este 0 -- -- 69
2019-08-06 21:00:00 22.6 6 Sudeste 17 Este 0 -- -- 62
2019-08-06 20:00:00 24 8 Este 21 Este 0 -- -- 66
2019-08-06 19:00:00 24.8 8 Este 15 Este 0 -- -- 65
2019-08-06 18:00:00 23.4 5 Este 15 Este 0.2 -- -- 80
2019-08-06 17:00:00 24.9 8 Este 21 Este 0 -- -- 71
2019-08-06 16:00:00 26.8 12 Este 28 Este 0 -- -- 63
2019-08-06 15:00:00 27.1 11 Este 26 Este 0 -- -- 60
2019-08-06 14:00:00 27 12 Este 25 Este 0 -- -- 59
2019-08-06 13:00:00 26.2 10 Este 23 Sudeste 0 -- -- 61
2019-08-06 12:00:00 25.5 11 Este 21 Sudeste 0 -- -- 62
2019-08-06 11:00:00 24.3 7 Este 13 Sudeste 0 -- -- 64
2019-08-06 10:00:00 22.5 6 Este 13 Este 0 -- -- 69
2019-08-06 09:00:00 22.8 2 Nordeste 10 Sudeste 0 -- -- 63
2019-08-06 08:00:00 20.1 4 Oeste 14 Oeste 0 -- -- 69
2019-08-06 07:00:00 19.8 5 Noroeste 11 Oeste 0 -- -- 75
2019-08-06 06:00:00 20.3 8 Oeste 14 Sudoeste 0 -- -- 71
2019-08-06 05:00:00 20.2 7 Sudoeste 17 Sudoeste 0 -- -- 65
2019-08-06 04:00:00 18.6 2 Oeste 9 Sur 0 -- -- 68
2019-08-06 03:00:00 18.6 2 Sudoeste 10 Sudeste 0 -- -- 68
2019-08-06 02:00:00 18.6 3 Sudeste 14 Sur 0 -- -- 71
2019-08-06 01:00:00 18.5 5 Sudeste 16 Este 0 -- -- 69
2019-08-06 00:00:00 18.8 5 Sudeste 16 Sudeste 0 -- -- 71
2019-08-05 23:00:00 17.2 3 Sur 5 Sudeste 0 -- -- 79
2019-08-05 22:00:00 18.2 2 Este 10 Este 0 -- -- 77
2019-08-05 21:00:00 19.7 7 Este 16 Este 0 -- -- 72
2019-08-05 20:00:00 21.8 9 Este 23 Este 0 -- -- 63
2019-08-05 19:00:00 23.6 12 Este 24 Este 0 -- -- 59
2019-08-05 18:00:00 25.2 12 Este 26 Este 0 -- -- 55
2019-08-05 17:00:00 25.4 14 Este 31 Este 0 -- -- 57
2019-08-05 16:00:00 26.4 13 Este 31 Este 0 -- -- 56
2019-08-05 15:00:00 26.6 13 Este 27 Este 0 -- -- 54
2019-08-05 14:00:00 25.5 14 Este 25 Este 0 -- -- 60
2019-08-05 13:00:00 25.4 13 Este 26 Este 0 -- -- 56
2019-08-05 12:00:00 24.9 13 Este 24 Este 0 -- -- 58
2019-08-05 11:00:00 24.3 10 Este 17 Este 0 -- -- 56
2019-08-05 10:00:00 23.3 7 Este 12 Nordeste 0 -- -- 50
2019-08-05 09:00:00 23.2 4 Este 10 Este 0 -- -- 49
2019-08-05 08:00:00 19.7 0 Calma 4 Norte 0 -- -- 59
2019-08-05 07:00:00 18.2 2 Nordeste 7 Sur 0 -- -- 59
2019-08-05 06:00:00 18.9 6 Sur 11 Sur 0 -- -- 59
2019-08-05 05:00:00 17.8 5 Sudoeste 13 Sur 0 -- -- 60
2019-08-05 04:00:00 20.2 8 Sur 21 Sudeste 0 -- -- 54
2019-08-05 03:00:00 19 8 Sudeste 17 Sudeste 0 -- -- 57
2019-08-05 02:00:00 17.8 6 Sudeste 15 Sudeste 0 -- -- 63
2019-08-05 01:00:00 18.2 5 Sudeste 11 Sudeste 0 -- -- 67
2019-08-05 00:00:00 18.5 5 Este 19 Este 0 -- -- 73
2019-08-04 23:00:00 18.6 6 Sudeste 18 Sudeste 0 -- -- 82
2019-08-04 22:00:00 19.2 5 Este 14 Este 0 -- -- 85
2019-08-04 21:00:00 20.7 8 Este 17 Este 0 -- -- 77
2019-08-04 20:00:00 21.5 9 Este 23 Este 0 -- -- 74
2019-08-04 19:00:00 22.1 12 Este 24 Este 0 -- -- 77
2019-08-04 18:00:00 23.9 12 Este 26 Sudeste 0 -- -- 70
2019-08-04 17:00:00 26 14 Este 30 Este 0 -- -- 63
2019-08-04 16:00:00 26.1 12 Este 30 Este 0 -- -- 63
2019-08-04 15:00:00 26.5 16 Este 30 Este 0 -- -- 61
2019-08-04 14:00:00 26.6 13 Este 24 Este 0 -- -- 55
2019-08-04 13:00:00 27.3 11 Este 24 Este 0 -- -- 45
2019-08-04 12:00:00 26 12 Este 23 Este 0 -- -- 44
2019-08-04 11:00:00 25.4 8 Este 15 Este 0 -- -- 43
2019-08-04 10:00:00 24.2 6 Este 12 Este 0 -- -- 46
2019-08-04 09:00:00 23.4 4 Este 6 Sudeste 0 -- -- 51
2019-08-04 08:00:00 20.5 3 Oeste 10 Noroeste 0 -- -- 60
2019-08-04 07:00:00 17.1 5 Noroeste 8 Noroeste 0 -- -- 67
2019-08-04 06:00:00 17.1 4 Norte 5 Norte 0 -- -- 68
2019-08-04 05:00:00 17.7 0 Calma 6 Este 0 -- -- 65
2019-08-04 04:00:00 18 3 Este 5 Sudeste 0 -- -- 65
2019-08-04 03:00:00 18.3 0 Calma 9 Sur 0 -- -- 64
2019-08-04 02:00:00 18.7 3 Sudeste 12 Sur 0 -- -- 64
2019-08-04 01:00:00 19 0 Calma 14 Sudeste 0 -- -- 65
2019-08-04 00:00:00 20 7 Sur 22 Sur 0 -- -- 64
2019-08-03 23:00:00 20.3 14 Sur 24 Sur 0 -- -- 65
2019-08-03 22:00:00 18 4 Sudeste 11 Sudeste 0 -- -- 73
2019-08-03 21:00:00 18.8 6 Este 21 Este 0 -- -- 79
2019-08-03 20:00:00 20 11 Este 28 Este 0 -- -- 77
2019-08-03 19:00:00 21.3 15 Este 31 Sudeste 0 -- -- 73
2019-08-03 18:00:00 23.7 15 Este 31 Este 0 -- -- 67
2019-08-03 17:00:00 24.4 17 Este 31 Este 0 -- -- 65
2019-08-03 16:00:00 25.5 14 Este 34 Este 0 -- -- 60
2019-08-03 15:00:00 26.2 12 Este 32 Este 0 -- -- 57
2019-08-03 14:00:00 26.1 13 Este 35 Este 0 -- -- 52
2019-08-03 13:00:00 25.9 12 Este 26 Este 0 -- -- 53
2019-08-03 12:00:00 24.5 13 Este 24 Este 0 -- -- 51
2019-08-03 11:00:00 23.8 13 Este 24 Este 0 -- -- 54
2019-08-03 10:00:00 23.9 6 Este 13 Este 0 -- -- 48
2019-08-03 09:00:00 22.6 4 Sur 9 Sur 0 -- -- 53
2019-08-03 08:00:00 18.5 0 Calma 4 Este 0 -- -- 63
2019-08-03 07:00:00 17 0 Calma 5 Este 0 -- -- 66
2019-08-03 06:00:00 17.1 0 Calma 6 Sudoeste -- -- -- 64
2019-08-03 05:00:00 17.3 2 Sur 4 Sur 0 -- -- 64
2019-08-03 04:00:00 17.9 2 Este 4 Este 0 -- -- 63
2019-08-03 03:00:00 18.4 0 Calma 6 Sudeste 0 -- -- 58
2019-08-03 02:00:00 19.3 4 Sur 10 Sudeste 0 -- -- 54
2019-08-03 01:00:00 18.8 4 Sudeste 10 Sur 0 -- -- 55
2019-08-03 00:00:00 17.9 3 Sur 6 Sur 0 -- -- 64
2019-08-02 23:00:00 17.6 0 Calma 5 Este 0 -- -- 68
2019-08-02 22:00:00 18.1 0 Calma 4 Sudeste 0 -- -- 65
2019-08-02 21:00:00 20.3 2 Este 6 Este 0 -- -- 58
2019-08-02 20:00:00 21.4 4 Sudeste 16 Este 0 -- -- 55
2019-08-02 19:00:00 22.8 7 Este 18 Este 0 -- -- 50
2019-08-02 18:00:00 24 8 Este 33 Este 0 -- -- 46
2019-08-02 17:00:00 24.6 14 Este 31 Este 0 -- -- 43
2019-08-02 16:00:00 25.6 14 Este 31 Este 0 -- -- 41
2019-08-02 15:00:00 26.2 14 Este 30 Este 0 -- -- 42
2019-08-02 14:00:00 26 10 Este 31 Este 0 -- -- 45
2019-08-02 13:00:00 25 13 Este 25 Este 0 -- -- 48
2019-08-02 12:00:00 24.9 7 Este 15 Este 0 -- -- 53
2019-08-02 11:00:00 23.4 6 Oeste 15 Noroeste 0 -- -- 59
2019-08-02 10:00:00 21.1 6 Oeste 17 Oeste 0 -- -- 68
2019-08-02 09:00:00 18.3 10 Oeste 19 Oeste 0 -- -- 78
2019-08-02 08:00:00 15.7 11 Oeste 21 Oeste 0 -- -- 87
2019-08-02 07:00:00 14.9 13 Oeste 23 Oeste 0 -- -- 89
2019-08-02 06:00:00 15.2 14 Oeste 23 Oeste 0 -- -- 87
2019-08-02 05:00:00 15.8 13 Oeste 23 Noroeste 0 -- -- 83
2019-08-02 04:00:00 16.8 14 Oeste 27 Oeste 0 -- -- 74
2019-08-02 03:00:00 17.5 16 Oeste 23 Oeste 0 -- -- 64
2019-08-02 02:00:00 18.4 7 Oeste 10 Oeste 0 -- -- 55
2019-08-02 01:00:00 17.7 4 Oeste 5 Nordeste 0 -- -- 52
2019-08-02 00:00:00 17.9 0 Calma 6 Este 0 -- -- 53
2019-08-01 23:00:00 17.1 2 Este 6 Norte 0 -- -- 57
2019-08-01 22:00:00 17.5 3 Este 10 Este 0 -- -- 65
2019-08-01 21:00:00 18.8 4 Este 13 Este 0 -- -- 57
2019-08-01 20:00:00 20.6 7 Este 13 Este 0 -- -- 55
2019-08-01 19:00:00 21.5 4 Sudeste 20 Este 0 -- -- 57
2019-08-01 18:00:00 22.4 10 Este 27 Este 0 -- -- 60
2019-08-01 17:00:00 23.2 10 Este 25 Este 0 -- -- 60
2019-08-01 16:00:00 22.8 16 Este 33 Este 0 -- -- 64
2019-08-01 15:00:00 24 12 Este 24 Este 0 -- -- 61
2019-08-01 14:00:00 22.8 10 Este 19 Este 0 -- -- 61
2019-08-01 13:00:00 22.5 12 Este 25 Este 0 -- -- 60
2019-08-01 12:00:00 21.6 13 Este 28 Este 0 -- -- 63
2019-08-01 11:00:00 20.7 14 Este 24 Este 0 -- -- 67
2019-08-01 10:00:00 19.5 12 Este 24 Este 0 -- -- 75
2019-08-01 09:00:00 16.9 7 Sudeste 18 Sudeste 0 -- -- 87
2019-08-01 08:00:00 15.2 8 Este 14 Este 0 -- -- 96
2019-08-01 07:00:00 14.1 9 Este 13 Este 0 -- -- 94
2019-08-01 06:00:00 14.7 8 Este 21 Este 0 -- -- 95
2019-08-01 05:00:00 14.9 12 Este 23 Este 0 -- -- 95
2019-08-01 04:00:00 14.3 6 Este 14 Sudeste 0 -- -- 91
2019-08-01 03:00:00 14.3 4 Este 12 Este 0 -- -- 90
2019-08-01 02:00:00 15.5 5 Sudeste 17 Este 0 -- -- 91
2019-08-01 01:00:00 16 6 Sudeste 13 Este 0 -- -- 93
2019-08-01 00:00:00 16.1 6 Este 15 Sudeste 0 -- -- 92
2019-07-31 23:00:00 16.6 5 Sudeste 12 Sur 0 -- -- 93
2019-07-31 22:00:00 16.9 2 Sudeste 13 Este 0 -- -- 91
2019-07-31 21:00:00 16.9 7 Este 18 Este 0 -- -- 92
2019-07-31 20:00:00 17.4 6 Sudeste 17 Este 0 -- -- 90
2019-07-31 19:00:00 17.8 9 Este 21 Sudeste 0 -- -- 88
2019-07-31 18:00:00 18.1 10 Este 32 Este 0 -- -- 86
2019-07-31 17:00:00 17.5 14 Este 31 Este 0 -- -- 86
2019-07-31 16:00:00 17.9 17 Este 31 Este 0 -- -- 83
2019-07-31 15:00:00 17.9 13 Este 37 Este 0 -- -- 81
2019-07-31 14:00:00 19.4 15 Este 37 Este 0 -- -- 70
2019-07-31 13:00:00 19.1 14 Este 27 Este 0 -- -- 68
2019-07-31 12:00:00 19.8 12 Este 26 Este 0 -- -- 56
2019-07-31 11:00:00 19.5 13 Este 23 Este 0 -- -- 56
2019-07-31 10:00:00 19.2 7 Este 14 Este 0 -- -- 55
2019-07-31 09:00:00 16.4 4 Este 9 Este 0 -- -- 54
2019-07-31 08:00:00 12.6 6 Oeste 14 Oeste 0 -- -- 60
2019-07-31 07:00:00 11.3 11 Oeste 17 Oeste 0 -- -- 64
2019-07-31 06:00:00 11.6 13 Oeste 22 Oeste 0 -- -- 65
2019-07-31 05:00:00 12 16 Oeste 23 Oeste 0 -- -- 64
2019-07-31 04:00:00 12.2 15 Oeste 25 Noroeste 0 -- -- 64
2019-07-31 03:00:00 12.6 17 Oeste 28 Oeste 0 -- -- 64
2019-07-31 02:00:00 13.1 14 Oeste 29 Noroeste 0 -- -- 63
2019-07-31 01:00:00 14.2 18 Oeste 27 Oeste 0 -- -- 61
2019-07-31 00:00:00 15.4 17 Oeste 28 Oeste 0 -- -- 56
2019-07-30 23:00:00 16.4 18 Oeste 28 Oeste 0 -- -- 53
2019-07-30 22:00:00 17.1 8 Oeste 13 Oeste 0 -- -- 53
2019-07-30 21:00:00 19.1 3 Este 10 Sudeste 0 -- -- 64
2019-07-30 20:00:00 20.3 4 Este 12 Este 0 -- -- 58
2019-07-30 19:00:00 21.4 6 Este 21 Este 0 -- -- 53
2019-07-30 18:00:00 23 11 Este 24 Sudeste 0 -- -- 50
2019-07-30 17:00:00 24.2 10 Este 30 Este 0 -- -- 46
2019-07-30 16:00:00 24.4 7 Este 21 Oeste 0 -- -- 43
2019-07-30 15:00:00 23.6 11 Noroeste 22 Noroeste 0 -- -- 42
2019-07-30 14:00:00 23 10 Noroeste 23 Norte 0 -- -- 44
2019-07-30 13:00:00 22.1 11 Noroeste 31 Oeste 0 -- -- 46
2019-07-30 12:00:00 20.4 16 Oeste 39 Noroeste 0 -- -- 52
2019-07-30 11:00:00 18.1 23 Oeste 37 Oeste 0 -- -- 59
2019-07-30 10:00:00 16.2 21 Oeste 39 Noroeste 0 -- -- 65
2019-07-30 09:00:00 14 24 Oeste 47 Oeste 0 -- -- 73
2019-07-30 08:00:00 13.1 28 Oeste 45 Oeste 0 -- -- 76
2019-07-30 07:00:00 12.7 27 Oeste 47 Oeste 0 -- -- 79
2019-07-30 06:00:00 13.6 27 Oeste 44 Oeste 0 -- -- 78
2019-07-30 05:00:00 14.5 26 Oeste 42 Noroeste 0 -- -- 76
2019-07-30 04:00:00 15.6 23 Oeste 34 Oeste 0 -- -- 73
2019-07-30 03:00:00 17.5 18 Oeste 27 Oeste 0 -- -- 66
2019-07-30 02:00:00 19.5 13 Oeste 19 Oeste 0 -- -- 48
2019-07-30 01:00:00 20.3 6 Sudeste 19 Sur 0 -- -- 45
2019-07-30 00:00:00 19.5 7 Sudeste 21 Sur 0 -- -- 44
2019-07-29 23:00:00 18.2 5 Sudeste 19 Este 0 -- -- 59
2019-07-29 22:00:00 18 4 Sudeste 15 Este 0 -- -- 69
2019-07-29 21:00:00 19.4 9 Este 22 Este 0 -- -- 71
2019-07-29 20:00:00 20.6 12 Este 23 Este 0 -- -- 71
2019-07-29 19:00:00 21.8 13 Este 22 Este 0 -- -- 67
2019-07-29 18:00:00 23.5 13 Este 28 Sudeste 0 -- -- 63
2019-07-29 17:00:00 24.5 16 Este 30 Este 0 -- -- 58
2019-07-29 16:00:00 24.4 10 Este 27 Este 0 -- -- 62
2019-07-29 15:00:00 25.3 13 Este 27 Este 0 -- -- 57
2019-07-29 14:00:00 25.4 12 Este 28 Este 0 -- -- 46
2019-07-29 13:00:00 25.1 12 Este 24 Este 0 -- -- 41
2019-07-29 12:00:00 24.6 10 Este 23 Este 0 -- -- 43
2019-07-29 11:00:00 23.8 8 Este 17 Este 0 -- -- 42
2019-07-29 10:00:00 22.7 5 Este 10 Este 0 -- -- 44
2019-07-29 09:00:00 21.2 3 Este 5 Este 0 -- -- 47
2019-07-29 08:00:00 18.6 3 Este 6 Sudeste 0 -- -- 54
2019-07-29 07:00:00 14.5 0 Calma 6 Sur 0 -- -- 58
2019-07-29 06:00:00 15.2 4 Sur 9 Sur 0 -- -- 55
2019-07-29 05:00:00 15.5 4 Sur 12 Sur 0 -- -- 55
2019-07-29 04:00:00 15.6 4 Sur 11 Sur 0 -- -- 54
2019-07-29 03:00:00 15.8 8 Sur 16 Sur 0 -- -- 55
2019-07-29 02:00:00 15.8 9 Sur 15 Sur 0 -- -- 59
2019-07-29 01:00:00 15.2 3 Sudeste 9 Sudeste 0 -- -- 70
2019-07-29 00:00:00 16 3 Sudeste 5 Sudeste 0 -- -- 64
2019-07-28 23:00:00 15.3 4 Norte 9 Noroeste 0 -- -- 58
2019-07-28 22:00:00 15.7 6 Noroeste 8 Norte 0 -- -- 66
2019-07-28 21:00:00 18.1 2 Este 10 Este 0 -- -- 59
2019-07-28 20:00:00 19.3 5 Sudeste 15 Este 0 -- -- 57
2019-07-28 19:00:00 20.1 7 Este 23 Este 0 -- -- 54
2019-07-28 18:00:00 21.5 10 Este 19 Este 0 -- -- 53
2019-07-28 17:00:00 24.4 8 Oeste 24 Sudoeste 0 -- -- 34
2019-07-28 16:00:00 23.5 11 Oeste 32 Oeste 0 -- -- 34
2019-07-28 15:00:00 22.9 12 Oeste 30 Oeste 0 -- -- 40
2019-07-28 14:00:00 20.7 17 Noroeste 44 Oeste 0 -- -- 46
2019-07-28 13:00:00 19.3 29 Noroeste 51 Oeste 0 -- -- 48
2019-07-28 12:00:00 17.4 31 Oeste 56 Noroeste 0 -- -- 53
2019-07-28 11:00:00 15.9 28 Oeste 49 Oeste 0 -- -- 61
2019-07-28 10:00:00 13.7 27 Oeste 49 Oeste 0 -- -- 70
2019-07-28 09:00:00 11.8 22 Oeste 67 Noroeste 0 -- -- 77
2019-07-28 08:00:00 10.7 38 Oeste 86 Oeste 0 -- -- 80
2019-07-28 07:00:00 9.8 49 Oeste 85 Oeste 0 -- -- 82
2019-07-28 06:00:00 9.7 50 Oeste 80 Oeste 0 -- -- 83
2019-07-28 05:00:00 9.9 44 Oeste 77 Oeste 0 -- -- 84
2019-07-28 04:00:00 10.1 42 Oeste 74 Oeste 0 -- -- 83
2019-07-28 03:00:00 10.4 43 Oeste 74 Noroeste 0 -- -- 83
2019-07-28 02:00:00 10.9 43 Oeste 80 Oeste 0 -- -- 82
2019-07-28 01:00:00 11.5 45 Oeste 77 Oeste 0 -- -- 78
2019-07-28 00:00:00 11.9 41 Oeste 75 Noroeste 0 -- -- 78
2019-07-27 23:00:00 12.3 39 Oeste 71 Oeste 0 -- -- 79
2019-07-26 12:00:00 -- -- -- -- -- -- -- -- --
2019-07-26 11:00:00 -- -- -- -- -- -- -- -- --
2019-07-26 10:00:00 -- -- -- -- -- -- -- -- --
2019-07-26 09:00:00 22.8 4 Este 14 Este 0 -- -- 41
2019-07-26 08:00:00 20.5 8 Este 15 Este 0 -- -- 46
2019-07-26 07:00:00 18.8 6 Sudeste 21 Sur 0 -- -- 47
2019-07-26 06:00:00 19 6 Sudeste 21 Sudeste 0 -- -- 49
2019-07-26 05:00:00 18.9 5 Sudeste 20 Sudeste 0 -- -- 50
2019-07-26 04:00:00 19.5 8 Sudeste 23 Sur 0 -- -- 47
2019-07-26 03:00:00 19.1 6 Sudeste 17 Sur 0 -- -- 50
2019-07-26 02:00:00 19 4 Sudeste 19 Sudeste 0 -- -- 50
2019-07-26 01:00:00 19.1 6 Sudeste 17 Sudeste 0 -- -- 52
2019-07-26 00:00:00 19.9 4 Sudeste 17 Sudeste 0 -- -- 54
2019-07-25 23:00:00 20.8 6 Sudeste 18 Sur 0 -- -- 52
2019-07-25 22:00:00 20.7 5 Sur 15 Sudeste 0 -- -- 55
2019-07-25 21:00:00 21.2 4 Este 16 Este 0 -- -- 59
2019-07-25 20:00:00 22.9 8 Sudeste 19 Este 0 -- -- 53
2019-07-25 19:00:00 24.3 9 Sudeste 28 Sudeste 0 -- -- 48
2019-07-25 18:00:00 25.5 16 Este 33 Este 0 -- -- 49
2019-07-25 17:00:00 27 14 Este 31 Este 0 -- -- 49
2019-07-25 16:00:00 27 15 Este 41 Este 0 -- -- 51
2019-07-25 15:00:00 27.5 15 Este 36 Este 0 -- -- 51
2019-07-25 14:00:00 28.7 13 Este -- -- -- -- -- 48
2019-07-25 13:00:00 -- -- -- -- -- -- -- -- --
2019-07-25 12:00:00 -- -- -- -- -- -- -- -- --
2019-07-25 11:00:00 -- -- -- -- -- -- -- -- --
2019-07-25 10:00:00 -- -- -- -- -- -- -- -- --
2019-07-25 09:00:00 -- -- -- -- -- -- -- -- --
2019-07-25 08:00:00 -- -- -- -- -- -- -- -- --
2019-07-25 07:00:00 -- -- -- -- -- -- -- -- --
2019-07-25 06:00:00 -- -- -- -- -- -- -- -- --
2019-07-25 05:00:00 -- -- -- -- -- -- -- -- --
2019-07-25 04:00:00 -- -- -- -- -- -- -- -- --
2019-07-25 03:00:00 -- -- -- -- -- -- -- -- --
2019-07-25 02:00:00 -- -- -- -- -- -- -- -- --
2019-07-25 01:00:00 -- -- -- -- -- -- -- -- --
2019-07-25 00:00:00 -- -- -- -- -- -- -- -- --
2019-07-24 23:00:00 -- -- -- -- -- -- -- -- --
2019-07-24 22:00:00 -- -- -- -- -- -- -- -- --
2019-07-24 21:00:00 -- -- -- -- -- -- -- -- --
2019-07-24 20:00:00 -- -- -- -- -- -- -- -- --
2019-07-24 19:00:00 -- -- -- -- -- -- -- -- --
2019-07-24 18:00:00 -- -- -- -- -- -- -- -- --
2019-07-24 17:00:00 -- -- -- -- -- -- -- -- --
2019-07-24 16:00:00 -- -- -- -- -- -- -- -- --
2019-07-24 15:00:00 -- -- -- -- -- -- -- -- --
2019-07-24 14:00:00 -- -- -- -- -- -- -- -- --
2019-07-24 13:00:00 -- -- -- -- -- -- -- -- --
2019-07-24 12:00:00 -- -- -- -- -- -- -- -- --
2019-07-24 11:00:00 -- -- -- -- -- -- -- -- --
2019-07-24 10:00:00 -- -- -- -- -- -- -- -- --
2019-07-24 09:00:00 -- -- -- -- -- -- -- -- --
2019-07-24 08:00:00 -- -- -- -- -- -- -- -- --
2019-07-24 07:00:00 -- -- -- -- -- -- -- -- --
2019-07-24 06:00:00 -- -- -- -- -- -- -- -- --
2019-07-24 05:00:00 -- -- -- -- -- -- -- -- --
2019-07-24 04:00:00 -- -- -- -- -- -- -- -- --
2019-07-24 03:00:00 -- -- -- -- -- -- -- -- --
2019-07-24 02:00:00 -- -- -- -- -- -- -- -- --
2019-07-24 01:00:00 -- -- -- -- -- -- -- -- --
2019-07-24 00:00:00 -- -- -- -- -- -- -- -- --
2019-07-23 23:00:00 -- -- -- -- -- -- -- -- --
2019-07-23 22:00:00 -- -- -- -- -- -- -- -- --
2019-07-23 21:00:00 -- -- -- -- -- -- -- -- --
2019-07-23 20:00:00 -- -- -- -- -- -- -- -- --
2019-07-23 19:00:00 -- -- -- -- -- -- -- -- --
2019-07-23 18:00:00 -- -- -- -- -- -- -- -- --
2019-07-23 17:00:00 -- -- -- -- -- -- -- -- --
2019-07-23 16:00:00 -- -- -- -- -- -- -- -- --
2019-07-23 15:00:00 -- -- -- -- -- -- -- -- --
2019-07-23 14:00:00 -- -- -- -- -- -- -- -- --
2019-07-23 13:00:00 -- -- -- -- -- -- -- -- --
2019-07-23 12:00:00 -- -- -- -- -- -- -- -- --
2019-07-23 11:00:00 -- -- -- -- -- -- -- -- --
2019-07-23 10:00:00 -- -- -- -- -- -- -- -- --
2019-07-23 09:00:00 -- -- -- -- -- -- -- -- --
2019-07-23 08:00:00 -- -- -- -- -- -- -- -- --
2019-07-23 07:00:00 -- -- -- -- -- -- -- -- --
2019-07-23 06:00:00 -- -- -- -- -- -- -- -- --
2019-07-23 05:00:00 -- -- -- -- -- -- -- -- --
2019-07-23 04:00:00 -- -- -- -- -- -- -- -- --
2019-07-23 03:00:00 -- -- -- -- -- -- -- -- --
2019-07-23 02:00:00 -- -- -- -- -- -- -- -- --
2019-07-23 01:00:00 -- -- -- -- -- -- -- -- --
2019-07-23 00:00:00 -- -- -- -- -- -- -- -- --
2019-07-22 23:00:00 -- -- -- -- -- -- -- -- --
2019-07-22 22:00:00 -- -- -- -- -- -- -- -- --
2019-07-22 21:00:00 -- -- -- -- -- -- -- -- --
2019-07-22 20:00:00 -- -- -- -- -- -- -- -- --
2019-07-22 19:00:00 -- -- -- -- -- -- -- -- --
2019-07-22 18:00:00 -- -- -- -- -- -- -- -- --
2019-07-22 17:00:00 -- -- -- -- -- -- -- -- --
2019-07-22 16:00:00 -- -- -- -- -- -- -- -- --
2019-07-22 15:00:00 -- -- -- -- -- -- -- -- --
2019-07-22 14:00:00 -- -- -- -- -- -- -- -- --
2019-07-22 13:00:00 -- -- -- -- -- -- -- -- --
2019-07-22 12:00:00 -- -- -- -- -- -- -- -- --
2019-07-22 11:00:00 -- -- -- -- -- -- -- -- --
2019-07-22 10:00:00 -- -- -- -- -- -- -- -- --
2019-07-22 09:00:00 -- -- -- -- -- -- -- -- --
2019-07-22 08:00:00 -- -- -- -- -- -- -- -- --
2019-07-22 07:00:00 -- -- -- -- -- -- -- -- --
2019-07-22 06:00:00 -- -- -- -- -- -- -- -- --
2019-07-22 05:00:00 -- -- -- -- -- -- -- -- --
2019-07-22 04:00:00 -- -- -- -- -- -- -- -- --
2019-07-22 03:00:00 -- -- -- -- -- -- -- -- --
2019-07-22 02:00:00 -- -- -- -- -- -- -- -- --
2019-07-22 01:00:00 -- -- -- -- -- -- -- -- --
2019-07-22 00:00:00 -- -- -- -- -- -- -- -- --
2019-07-21 23:00:00 -- -- -- -- -- -- -- -- --
2019-07-21 22:00:00 -- -- -- -- -- -- -- -- --
2019-07-21 21:00:00 -- -- -- -- -- -- -- -- --
2019-07-21 20:00:00 -- -- -- -- -- -- -- -- --
2019-07-21 19:00:00 -- -- -- -- -- -- -- -- --
2019-07-21 18:00:00 -- -- -- -- -- -- -- -- --
2019-07-21 17:00:00 -- -- -- -- -- -- -- -- --
2019-07-21 16:00:00 -- -- -- -- -- -- -- -- --
2019-07-21 15:00:00 -- -- -- -- -- -- -- -- --
2019-07-21 14:00:00 -- -- -- -- -- -- -- -- --
2019-07-21 13:00:00 -- -- -- -- -- -- -- -- --
2019-07-21 12:00:00 -- -- -- -- -- -- -- -- --
2019-07-21 11:00:00 -- -- -- -- -- -- -- -- --
2019-07-21 10:00:00 -- -- -- -- -- -- -- -- --
2019-07-21 09:00:00 -- -- -- -- -- -- -- -- --
2019-07-21 08:00:00 -- -- -- -- -- -- -- -- --
2019-07-21 07:00:00 -- -- -- -- -- -- -- -- --
2019-07-21 06:00:00 -- -- -- -- -- -- -- -- --
2019-07-21 05:00:00 -- -- -- -- -- -- -- -- --
2019-07-21 04:00:00 -- -- -- -- -- -- -- -- --
2019-07-21 03:00:00 -- -- -- -- -- -- -- -- --
2019-07-21 02:00:00 -- -- -- -- -- -- -- -- --
2019-07-21 01:00:00 -- -- -- -- -- -- -- -- --
2019-07-21 00:00:00 -- -- -- -- -- -- -- -- --
2019-07-20 23:00:00 -- -- -- -- -- -- -- -- --
2019-07-20 22:00:00 -- -- -- -- -- -- -- -- --
2019-07-20 21:00:00 -- -- -- -- -- -- -- -- --
2019-07-20 20:00:00 -- -- -- -- -- -- -- -- --
2019-07-20 19:00:00 -- -- -- -- -- -- -- -- --
2019-07-20 18:00:00 -- -- -- -- -- -- -- -- --
2019-07-20 17:00:00 -- -- -- -- -- -- -- -- --
2019-07-20 16:00:00 -- -- -- -- -- -- -- -- --
2019-07-20 15:00:00 -- -- -- -- -- -- -- -- --
2019-07-20 14:00:00 -- -- -- -- -- -- -- -- --
2019-07-20 13:00:00 -- -- -- -- -- -- -- -- --
2019-07-20 12:00:00 -- -- -- -- -- -- -- -- --
2019-07-20 11:00:00 -- -- -- -- -- -- -- -- --
2019-07-20 10:00:00 -- -- -- -- -- -- -- -- --
2019-07-20 09:00:00 -- -- -- -- -- -- -- -- --
2019-07-20 08:00:00 -- -- -- -- -- -- -- -- --
2019-07-20 07:00:00 -- -- -- -- -- -- -- -- --
2019-07-20 06:00:00 -- -- -- -- -- -- -- -- --
2019-07-20 05:00:00 -- -- -- -- -- -- -- -- --
2019-07-20 04:00:00 -- -- -- -- -- -- -- -- --
2019-07-20 03:00:00 -- -- -- -- -- -- -- -- --
2019-07-20 02:00:00 -- -- -- -- -- -- -- -- --
2019-07-20 01:00:00 -- -- -- -- -- -- -- -- --
2019-07-20 00:00:00 -- -- -- -- -- -- -- -- --
2019-07-19 23:00:00 -- -- -- -- -- -- -- -- --
2019-07-19 22:00:00 -- -- -- -- -- -- -- -- --
2019-07-19 21:00:00 -- -- -- -- -- -- -- -- --
2019-07-19 20:00:00 -- -- -- -- -- -- -- -- --
2019-07-19 19:00:00 -- -- -- -- -- -- -- -- --
2019-07-19 18:00:00 -- -- -- -- -- -- -- -- --
2019-07-19 17:00:00 -- -- -- -- -- -- -- -- --
2019-07-19 16:00:00 -- -- -- -- -- -- -- -- --
2019-07-19 15:00:00 -- -- -- -- -- -- -- -- --
2019-07-19 14:00:00 -- -- -- -- -- -- -- -- --
2019-07-19 13:00:00 -- -- -- -- -- -- -- -- --
2019-07-19 12:00:00 -- -- -- -- -- -- -- -- --
2019-07-19 11:00:00 -- -- -- -- -- -- -- -- --
2019-07-19 10:00:00 -- -- -- -- -- -- -- -- --
2019-07-19 09:00:00 -- -- -- -- -- -- -- -- --
2019-07-19 08:00:00 -- -- -- -- -- -- -- -- --
2019-07-19 07:00:00 -- -- -- -- -- -- -- -- --
2019-07-19 06:00:00 -- -- -- -- -- -- -- -- --
2019-07-19 05:00:00 -- -- -- -- -- -- -- -- --
2019-07-19 04:00:00 -- -- -- -- -- -- -- -- --
2019-07-19 03:00:00 -- -- -- -- -- -- -- -- --
2019-07-19 02:00:00 -- -- -- -- -- -- -- -- --
2019-07-19 01:00:00 -- -- -- -- -- -- -- -- --
2019-07-19 00:00:00 -- -- -- -- -- -- -- -- --
2019-07-18 23:00:00 -- -- -- -- -- -- -- -- --
2019-07-18 22:00:00 -- -- -- -- -- -- -- -- --
2019-07-18 21:00:00 -- -- -- -- -- -- -- -- --
2019-07-18 20:00:00 -- -- -- -- -- -- -- -- --
2019-07-18 19:00:00 -- -- -- -- -- -- -- -- --
2019-07-18 18:00:00 -- -- -- -- -- -- -- -- --
2019-07-18 17:00:00 -- -- -- -- -- -- -- -- --
2019-07-18 16:00:00 -- -- -- -- -- -- -- -- --
2019-07-18 15:00:00 -- -- -- -- -- -- -- -- --
2019-07-18 14:00:00 -- -- -- -- -- -- -- -- --
2019-07-18 13:00:00 -- -- -- -- -- -- -- -- --
2019-07-18 12:00:00 -- -- -- -- -- -- -- -- --
2019-07-18 11:00:00 -- -- -- -- -- -- -- -- --
2019-07-18 10:00:00 -- -- -- -- -- -- -- -- --
2019-07-18 09:00:00 -- -- -- -- -- -- -- -- --
2019-07-18 08:00:00 -- -- -- -- -- -- -- -- --
2019-07-18 07:00:00 -- -- -- -- -- -- -- -- --
2019-07-18 06:00:00 -- -- -- -- -- -- -- -- --
2019-07-18 05:00:00 -- -- -- -- -- -- -- -- --
2019-07-18 04:00:00 -- -- -- -- -- -- -- -- --
2019-07-18 03:00:00 -- -- -- -- -- -- -- -- --
2019-07-18 02:00:00 -- -- -- -- -- -- -- -- --
2019-07-18 01:00:00 -- -- -- -- -- -- -- -- --
2019-07-18 00:00:00 -- -- -- -- -- -- -- -- --